This demonstration page uses our WeatherBlox Daily Observations layout. Learn more.

Left ArrowRight Arrow

39.92423, -83.80882

Hourly Observations for February 19, 2021

Temp ( °F °C ) Dew Point ( °F °C ) Humidity (%) Winds ( mph kmh ) Pressure ( in mb ) Visibility ( mi km ) Precip ( " mm )
12:56 am 00:56 Cloudy with Mist and Fog 21 -6.1 21 -6.1 100 100 NW 8 13 30.25 1025 6 10 0.00 0.00
1:56 am 01:56 Cloudy with Light Snow 21 -6.1 21 -6.1 100 100 WNW 8 13 30.26 1025 5 8 0.00 0.00
2:56 am 02:56 Cloudy with Light Snow 21 -6.1 21 -6.1 100 100 WNW 9 15 30.27 1025 4 6 0.00 0.00
3:56 am 03:56 Cloudy with Light Snow 21 -6.1 20 -6.7 96 96 WNW 9 15 30.27 1025 4 6 0.00 0.00
4:56 am 04:56 Cloudy with Light Snow 20 -6.7 19 -7.2 96 96 WNW 10 17 30.28 1025 4 6 0.00 0.00
5:52 am 05:52 Cloudy with Light Snow 19 -7 18 -8 93 93 WNW 14 22 30.33 1027 4 6 0.00 0.00
5:56 am 05:56 Cloudy with Light Snow 19 -7.2 17 -8.3 92 92 WNW 14 22 30.29 1026 4 6 0.00 0.00
6:22 am 06:22 Cloudy with Light Snow 18 -8 18 -8 100 100 NW 10 17 30.33 1027 4 6 0.00 0.00
6:56 am 06:56 Cloudy with Light Snow 17 -8.3 15 -9.4 92 92 NW 8 13 30.30 1026 4 6 0.00 0.00
7:26 am 07:26 Cloudy with Light Snow 16 -9 14 -10 93 93 WNW 7 11 30.35 1028 3 4 0.00 0.00
7:34 am 07:34 Cloudy with Light Snow 16 -9 16 -9 100 100 W 7 11 30.35 1028 3 5 0.00 0.00
7:56 am 07:56 Mostly Cloudy with Light Snow 12 -11.1 12 -11.1 100 100 W 7 11 30.31 1027 3 5 0.00 0.00
8:24 am 08:24 Cloudy with Light Snow 16 -9 16 -9 100 100 W 5 7 30.36 1028 3 5 0.00 0.00
8:56 am 08:56 Cloudy with Light Snow 17 -8.3 16 -8.9 95 95 NW 8 13 30.32 1027 4 6 0.00 0.00
9:56 am 09:56 Cloudy with Light Snow 18 -7.8 16 -8.9 92 92 W 13 20 30.32 1027 4 6 0.00 0.00
10:56 am 10:56 Cloudy with Light Snow 19 -7.2 15 -9.4 84 84 NW 10 17 30.33 1027 7 11 0.00 0.00
11:44 am 11:44 Cloudy with Light Snow 21 -6 16 -9 80 80 W 7 11 30.36 1028 8 13 0.00 0.00
11:56 am 11:56 Cloudy with Light Snow 21 -6.1 16 -8.9 81 81 W 9 15 30.33 1027 4 6 0.00 0.00
12:56 pm 12:56 Mostly Cloudy 22 -5.6 15 -9.4 75 75 WNW 8 13 30.32 1027 10 16 0.00 0.00
1:56 pm 13:56 Cloudy 24 -4.4 15 -9.4 68 68 WNW 15 24 30.30 1026 10 16 0.00 0.00
2:56 pm 14:56 Mostly Cloudy 24 -4.4 15 -9.4 68 68 WNW 10 17 30.30 1026 10 16 0.00 0.00
3:56 pm 15:56 Cloudy 22 -5.6 14 -10 71 71 NW 10 17 30.30 1026 10 16 0.00 0.00
4:56 pm 16:56 Cloudy 23 -5 15 -9.4 72 72 W 10 17 30.30 1026 10 16 0.00 0.00
5:56 pm 17:56 Cloudy 21 -6.1 13 -10.6 71 71 W 13 20 30.31 1027 10 16 0.00 0.00
6:19 pm 18:19 Partly Cloudy 19 -7 10 -12 68 68 WSW 14 22 30.35 1028 10 16 0.00 0.00
6:36 pm 18:36 Mostly Cloudy 19 -7 12 -11 73 73 WSW 12 19 30.36 1028 10 16 0.00 0.00
6:56 pm 18:56 Mostly Cloudy 17 -8.3 11 -11.7 77 77 W 13 20 30.34 1027 10 16 0.00 0.00
7:14 pm 19:14 Partly Cloudy 18 -8 10 -12 73 73 W 12 19 30.37 1028 10 16 0.00 0.00
7:24 pm 19:24 Mostly Cloudy 18 -8 12 -11 79 79 W 10 17 30.37 1028 10 16 0.00 0.00
7:56 pm 19:56 Cloudy 19 -7.2 13 -10.6 77 77 WNW 14 22 30.35 1028 10 16 0.00 0.00
8:24 pm 20:24 Partly Cloudy 16 -9 9 -13 73 73 WNW 10 17 30.40 1029 10 16 0.00 0.00
8:56 pm 20:56 Clear 14 -10 7 -13.9 73 73 W 10 17 30.36 1028 10 16 0.00 0.00
9:56 pm 21:56 Mostly Cloudy 13 -10.6 6 -14.4 74 74 W 9 15 30.38 1029 10 16 0.00 0.00
10:56 pm 22:56 Cloudy 14 -10 8 -13.3 77 77 W 9 15 30.39 1029 10 16 0.00 0.00
11:56 pm 23:56 Cloudy 14 -10 8 -13.3 77 77 WSW 7 11 30.37 1029 10 16 0.00 0.00

Powered by AerisWeather